IBE237 CYUL-CYSU

Flight info

Callsign IBE237
Flight time 1h 4m
Altitude 39000
Route SUXET DCT NOVUN DCT ESRAM DCT RABIK DCT ANTOV DCT TUGUB
Aircraft A21N/M-SDE2E3FGHIRWXY/LB1

Departure

Time 2026-05-09 14:45
Airport Montreal / Pierre Elliott Trudeau International Airport (CYUL)

Arrival

Time 2026-05-09 15:50
Airport Summerside Airport (CYSU)
Time Latitude Longitude Altitude Speed Heading
2026-05-09 14:12 45.46760 -73.73445 117 ft 0 kts 133°
2026-05-09 14:35 45.46761 -73.73445 122 ft 1 kts 133°
2026-05-09 14:35 45.46770 -73.73458 122 ft 3 kts 145°
2026-05-09 14:36 45.46787 -73.73470 119 ft 3 kts 173°
2026-05-09 14:36 45.46805 -73.73468 117 ft 3 kts 208°
2026-05-09 14:36 45.46814 -73.73459 118 ft 2 kts 223°
2026-05-09 14:38 45.46808 -73.73467 119 ft 3 kts 223°
2026-05-09 14:39 45.46783 -73.73501 121 ft 7 kts 223°
2026-05-09 14:39 45.46730 -73.73556 122 ft 12 kts 193°
2026-05-09 14:39 45.46638 -73.73561 123 ft 15 kts 176°
2026-05-09 14:39 45.46594 -73.73557 122 ft 5 kts 177°
2026-05-09 14:40 45.46569 -73.73526 121 ft 7 kts 98°
2026-05-09 14:40 45.46597 -73.73460 120 ft 10 kts 44°
2026-05-09 14:40 45.46652 -73.73383 120 ft 12 kts 44°
2026-05-09 14:40 45.46721 -73.73293 117 ft 15 kts 41°
2026-05-09 14:41 45.46808 -73.73185 120 ft 18 kts 42°
2026-05-09 14:41 45.46908 -73.73051 121 ft 21 kts 43°
2026-05-09 14:41 45.47024 -73.72897 121 ft 24 kts 42°
2026-05-09 14:41 45.47154 -73.72725 122 ft 27 kts 43°
2026-05-09 14:42 45.47296 -73.72540 118 ft 29 kts 43°
2026-05-09 14:42 45.47447 -73.72340 118 ft 31 kts 42°
2026-05-09 14:42 45.47612 -73.72127 122 ft 33 kts 43°
2026-05-09 14:42 45.47738 -73.71960 124 ft 12 kts 42°
2026-05-09 14:43 45.47800 -73.71882 123 ft 10 kts 42°
2026-05-09 14:43 45.47804 -73.71789 119 ft 12 kts 130°
2026-05-09 14:43 45.47769 -73.71733 118 ft 0 kts 132°
2026-05-09 14:44 45.47764 -73.71725 117 ft 2 kts 132°
2026-05-09 14:44 45.47750 -73.71703 118 ft 4 kts 132°
2026-05-09 14:44 45.47715 -73.71659 116 ft 12 kts 165°
2026-05-09 14:44 45.47611 -73.71726 119 ft 22 kts 218°
2026-05-09 14:45 45.47373 -73.72034 117 ft 84 kts 221°
2026-05-09 14:45 45.46777 -73.72807 120 ft 147 kts 221°
2026-05-09 14:45 45.45964 -73.73925 540 ft 164 kts 221°
2026-05-09 14:45 45.45178 -73.75033 1481 ft 157 kts 219°
2026-05-09 14:46 45.44350 -73.76091 2268 ft 165 kts 215°
2026-05-09 14:46 45.43224 -73.76529 2955 ft 181 kts 173°
2026-05-09 14:46 45.42419 -73.76066 3456 ft 198 kts 150°
2026-05-09 14:46 45.41470 -73.74500 4219 ft 226 kts 122°
2026-05-09 14:47 45.40480 -73.71635 5191 ft 256 kts 120°
2026-05-09 14:47 45.39667 -73.69295 6094 ft 270 kts 120°
2026-05-09 14:47 45.39103 -73.67690 6759 ft 275 kts 120°
2026-05-09 14:47 45.38226 -73.65229 7813 ft 280 kts 120°
2026-05-09 14:48 45.37033 -73.61907 9244 ft 289 kts 119°
2026-05-09 14:48 45.36416 -73.60200 9979 ft 294 kts 119°
2026-05-09 14:48 45.35451 -73.57538 10806 ft 312 kts 119°
2026-05-09 14:48 45.34420 -73.54700 11540 ft 330 kts 119°
2026-05-09 14:49 45.33359 -73.51786 12468 ft 339 kts 119°
2026-05-09 14:49 45.32261 -73.48776 13484 ft 345 kts 119°
2026-05-09 14:49 45.31145 -73.45718 14418 ft 352 kts 120°
2026-05-09 14:49 45.30002 -73.42593 15304 ft 359 kts 120°
2026-05-09 14:50 45.28848 -73.39446 16191 ft 365 kts 121°
2026-05-09 14:50 45.27661 -73.36216 17069 ft 372 kts 121°
2026-05-09 14:50 45.26450 -73.32926 17941 ft 379 kts 121°
2026-05-09 14:50 45.25213 -73.29571 18731 ft 385 kts 122°
2026-05-09 14:51 45.23958 -73.26166 19515 ft 390 kts 122°
2026-05-09 14:51 45.22706 -73.22763 20282 ft 395 kts 122°
2026-05-09 14:51 45.21478 -73.19233 21040 ft 403 kts 117°
2026-05-09 14:51 45.20675 -73.15371 21744 ft 415 kts 102°
2026-05-09 14:52 45.20525 -73.11247 22470 ft 423 kts 90°
2026-05-09 14:52 45.20648 -73.07039 23187 ft 429 kts 89°
2026-05-09 14:52 45.20833 -73.02848 23814 ft 435 kts 84°
2026-05-09 14:52 45.21463 -72.98621 24386 ft 440 kts 71°
2026-05-09 14:53 45.22724 -72.94638 24965 ft 442 kts 59°
2026-05-09 14:53 45.24252 -72.90820 25535 ft 447 kts 57°
2026-05-09 14:53 45.25793 -72.87029 26079 ft 452 kts 58°
2026-05-09 14:53 45.27357 -72.83097 26660 ft 456 kts 59°
2026-05-09 14:54 45.28643 -72.78965 27233 ft 461 kts 71°
2026-05-09 14:54 45.29345 -72.74500 27721 ft 465 kts 84°
2026-05-09 14:54 45.29580 -72.69894 28172 ft 470 kts 89°
2026-05-09 14:54 45.29737 -72.65214 28639 ft 475 kts 89°
2026-05-09 14:55 45.29929 -72.60558 29080 ft 480 kts 86°
2026-05-09 14:55 45.30314 -72.55830 29572 ft 484 kts 84°
2026-05-09 14:55 45.30738 -72.51042 30038 ft 488 kts 84°
2026-05-09 14:55 45.31161 -72.46282 30437 ft 492 kts 84°
2026-05-09 14:56 45.31588 -72.41439 30853 ft 494 kts 84°
2026-05-09 14:56 45.32007 -72.36583 31262 ft 497 kts 84°
2026-05-09 14:56 45.32432 -72.31680 31645 ft 500 kts 83°
2026-05-09 14:56 45.32854 -72.26738 32019 ft 503 kts 84°
2026-05-09 14:57 45.33273 -72.21776 32406 ft 506 kts 83°
2026-05-09 14:57 45.33685 -72.16867 32835 ft 507 kts 83°
2026-05-09 14:57 45.34103 -72.11882 33349 ft 506 kts 83°
2026-05-09 14:57 45.34519 -72.06902 33862 ft 505 kts 83°
2026-05-09 14:58 45.34932 -72.01942 34290 ft 504 kts 83°
2026-05-09 14:58 45.35339 -71.97067 34689 ft 502 kts 84°
2026-05-09 14:58 45.35744 -71.92130 35106 ft 501 kts 84°
2026-05-09 14:58 45.36150 -71.87190 35473 ft 500 kts 84°
2026-05-09 14:59 45.36547 -71.82269 35836 ft 500 kts 84°
2026-05-09 14:59 45.36927 -71.77424 36220 ft 499 kts 84°
2026-05-09 14:59 45.37313 -71.72514 36596 ft 497 kts 84°
2026-05-09 14:59 45.37699 -71.67635 36969 ft 496 kts 84°
2026-05-09 15:00 45.38085 -71.62756 37337 ft 495 kts 84°
2026-05-09 15:00 45.38469 -71.57889 37693 ft 494 kts 84°
2026-05-09 15:00 45.38850 -71.53033 38036 ft 492 kts 84°
2026-05-09 15:00 45.39228 -71.48197 38404 ft 492 kts 84°
2026-05-09 15:01 45.39972 -71.38580 38970 ft 493 kts 84°
2026-05-09 15:01 45.40350 -71.33730 39003 ft 491 kts 84°
2026-05-09 15:02 45.41091 -71.24050 39001 ft 491 kts 84°
2026-05-09 15:02 45.41823 -71.14432 38980 ft 490 kts 84°
2026-05-09 15:03 45.42563 -71.04772 38977 ft 490 kts 84°
2026-05-09 15:03 45.44020 -70.95276 38976 ft 492 kts 75°
2026-05-09 15:04 45.45773 -70.85894 38974 ft 493 kts 75°
2026-05-09 15:06 45.52643 -70.48102 38978 ft 491 kts 75°
2026-05-09 15:06 45.54363 -70.38643 38983 ft 493 kts 75°
2026-05-09 15:07 45.56066 -70.29159 38990 ft 493 kts 76°
2026-05-09 15:07 45.57747 -70.19700 38986 ft 493 kts 76°
2026-05-09 15:08 45.59429 -70.10191 38985 ft 492 kts 76°
2026-05-09 15:08 45.61112 -70.00714 38701 ft 500 kts 76°
2026-05-09 15:08 45.61973 -69.95883 38407 ft 500 kts 76°
2026-05-09 15:10 45.68527 -69.57857 38987 ft 492 kts 76°
2026-05-09 15:11 45.70138 -69.48402 38996 ft 491 kts 76°
2026-05-09 15:11 45.71754 -69.38896 39007 ft 491 kts 76°
2026-05-09 15:12 45.73388 -69.29392 39004 ft 491 kts 76°
2026-05-09 15:12 45.75012 -69.19870 39003 ft 490 kts 76°
2026-05-09 15:13 45.76586 -69.10423 39008 ft 489 kts 77°
2026-05-09 15:13 45.78164 -69.00925 39015 ft 490 kts 76°
2026-05-09 15:14 45.79753 -68.91396 39028 ft 492 kts 77°
2026-05-09 15:14 45.81326 -68.81842 39038 ft 491 kts 77°
2026-05-09 15:15 45.82860 -68.72401 39036 ft 487 kts 77°
2026-05-09 15:15 45.84405 -68.62901 39032 ft 490 kts 77°
2026-05-09 15:16 45.85959 -68.53338 39051 ft 492 kts 77°
2026-05-09 15:16 45.87493 -68.43765 39048 ft 492 kts 77°
2026-05-09 15:17 45.89021 -68.34171 39034 ft 492 kts 77°
2026-05-09 15:17 45.90548 -68.24588 39040 ft 492 kts 77°
2026-05-09 15:18 45.92069 -68.15066 39026 ft 491 kts 77°
2026-05-09 15:18 45.93586 -68.05458 39022 ft 490 kts 77°
2026-05-09 15:19 45.95066 -67.95951 39015 ft 490 kts 78°
2026-05-09 15:19 45.96530 -67.86388 39011 ft 489 kts 78°
2026-05-09 15:20 45.98402 -67.72009 39014 ft 490 kts 83°
2026-05-09 15:21 45.99315 -67.62281 39016 ft 491 kts 83°
2026-05-09 15:21 46.00212 -67.52574 39016 ft 487 kts 83°
2026-05-09 15:22 46.01104 -67.42910 39024 ft 489 kts 83°
2026-05-09 15:22 46.01983 -67.33277 39024 ft 489 kts 83°
2026-05-09 15:23 46.02855 -67.23549 39024 ft 489 kts 83°
2026-05-09 15:23 46.03738 -67.13849 39023 ft 488 kts 83°
2026-05-09 15:24 46.04598 -67.04149 39029 ft 487 kts 84°
2026-05-09 15:24 46.05442 -66.94556 38921 ft 483 kts 84°
2026-05-09 15:24 46.05862 -66.89704 37818 ft 493 kts 84°
2026-05-09 15:25 46.06285 -66.84744 36597 ft 504 kts 84°
2026-05-09 15:25 46.06720 -66.79700 35629 ft 507 kts 83°
2026-05-09 15:25 46.07157 -66.74676 34965 ft 503 kts 83°
2026-05-09 15:26 46.07993 -66.64823 33834 ft 491 kts 83°
2026-05-09 15:26 46.08408 -66.59965 33185 ft 485 kts 83°
2026-05-09 15:26 46.08814 -66.55170 32546 ft 480 kts 83°
2026-05-09 15:26 46.09210 -66.50427 31945 ft 474 kts 83°
2026-05-09 15:27 46.09596 -66.45723 31362 ft 469 kts 83°
2026-05-09 15:27 46.09978 -66.41073 30772 ft 464 kts 83°
2026-05-09 15:27 46.10354 -66.36479 30187 ft 459 kts 83°
2026-05-09 15:27 46.10723 -66.31992 29547 ft 454 kts 83°
2026-05-09 15:28 46.11089 -66.27486 28889 ft 448 kts 83°
2026-05-09 15:28 46.11450 -66.23052 28243 ft 444 kts 83°
2026-05-09 15:28 46.11803 -66.18652 27565 ft 441 kts 83°
2026-05-09 15:28 46.12150 -66.14272 26955 ft 436 kts 83°
2026-05-09 15:29 46.12495 -66.09936 26312 ft 433 kts 83°
2026-05-09 15:29 46.12837 -66.05689 25736 ft 429 kts 83°
2026-05-09 15:29 46.13173 -66.01433 25145 ft 425 kts 83°
2026-05-09 15:29 46.13509 -65.97193 24540 ft 422 kts 83°
2026-05-09 15:30 46.13834 -65.92998 24003 ft 418 kts 83°
2026-05-09 15:30 46.14158 -65.88843 23421 ft 415 kts 83°
2026-05-09 15:30 46.14473 -65.84766 22808 ft 411 kts 83°
2026-05-09 15:30 46.14791 -65.80680 22198 ft 407 kts 83°
2026-05-09 15:31 46.15103 -65.76634 21637 ft 402 kts 83°
2026-05-09 15:31 46.15414 -65.72639 21106 ft 398 kts 83°
2026-05-09 15:31 46.15706 -65.68744 20603 ft 393 kts 83°
2026-05-09 15:31 46.16001 -65.64844 20098 ft 388 kts 83°
2026-05-09 15:32 46.16297 -65.60989 19629 ft 384 kts 83°
2026-05-09 15:32 46.16588 -65.57176 19185 ft 379 kts 83°
2026-05-09 15:32 46.16863 -65.53456 18720 ft 374 kts 84°
2026-05-09 15:32 46.17128 -65.49740 18287 ft 370 kts 84°
2026-05-09 15:33 46.17389 -65.46064 17803 ft 366 kts 84°
2026-05-09 15:33 46.17658 -65.42425 17359 ft 360 kts 83°
2026-05-09 15:33 46.17926 -65.38887 16947 ft 355 kts 84°
2026-05-09 15:33 46.18188 -65.35365 16538 ft 350 kts 84°
2026-05-09 15:34 46.18447 -65.31891 16121 ft 345 kts 84°
2026-05-09 15:34 46.18699 -65.28467 15768 ft 340 kts 84°
2026-05-09 15:34 46.18862 -65.26200 15537 ft 342 kts 84°
2026-05-09 15:34 46.19190 -65.21656 15072 ft 342 kts 84°
2026-05-09 15:35 46.19433 -65.18224 14694 ft 343 kts 84°
2026-05-09 15:35 46.19593 -65.15949 14439 ft 344 kts 84°
2026-05-09 15:35 46.19839 -65.12488 14043 ft 345 kts 84°
2026-05-09 15:35 46.20163 -65.07921 13507 ft 342 kts 84°
2026-05-09 15:36 46.20326 -65.05624 13240 ft 338 kts 84°
2026-05-09 15:36 46.20563 -65.02319 12868 ft 332 kts 84°
2026-05-09 15:36 46.20791 -64.99034 12514 ft 325 kts 85°
2026-05-09 15:36 46.21011 -64.95810 12140 ft 319 kts 85°
2026-05-09 15:37 46.21229 -64.92634 11775 ft 315 kts 85°
2026-05-09 15:37 46.21445 -64.89507 11421 ft 310 kts 85°
2026-05-09 15:37 46.21657 -64.86465 11082 ft 306 kts 85°
2026-05-09 15:37 46.21868 -64.83406 10754 ft 306 kts 85°
2026-05-09 15:38 46.22082 -64.80335 10426 ft 306 kts 85°
2026-05-09 15:38 46.22293 -64.77273 10103 ft 306 kts 85°
2026-05-09 15:38 46.22498 -64.74212 9766 ft 303 kts 86°
2026-05-09 15:38 46.22698 -64.71215 9459 ft 296 kts 85°
2026-05-09 15:39 46.22893 -64.68304 9105 ft 294 kts 85°
2026-05-09 15:39 46.23092 -64.65357 8755 ft 294 kts 86°
2026-05-09 15:39 46.23288 -64.62433 8423 ft 291 kts 86°
2026-05-09 15:39 46.23481 -64.59524 8108 ft 290 kts 86°
2026-05-09 15:40 46.23673 -64.56624 7777 ft 289 kts 86°
2026-05-09 15:40 46.23862 -64.53730 7465 ft 289 kts 86°
2026-05-09 15:40 46.24048 -64.50891 7138 ft 287 kts 86°
2026-05-09 15:40 46.24235 -64.48024 6753 ft 286 kts 86°
2026-05-09 15:41 46.24422 -64.45177 6422 ft 283 kts 86°
2026-05-09 15:41 46.24604 -64.42359 6050 ft 283 kts 86°
2026-05-09 15:41 46.24782 -64.39538 5699 ft 281 kts 86°
2026-05-09 15:41 46.24961 -64.36727 5354 ft 280 kts 85°
2026-05-09 15:42 46.25136 -64.33958 5022 ft 279 kts 86°
2026-05-09 15:42 46.25313 -64.31163 4662 ft 279 kts 86°
2026-05-09 15:42 46.25491 -64.28369 4336 ft 277 kts 86°
2026-05-09 15:42 46.25665 -64.25619 3979 ft 272 kts 86°
2026-05-09 15:43 46.25839 -64.22884 3623 ft 272 kts 86°
2026-05-09 15:43 46.26010 -64.20165 3271 ft 271 kts 86°
2026-05-09 15:43 46.26180 -64.17451 2927 ft 271 kts 86°
2026-05-09 15:43 46.26350 -64.14747 2585 ft 270 kts 86°
2026-05-09 15:44 46.26514 -64.12093 2254 ft 268 kts 86°
2026-05-09 15:44 46.26678 -64.09416 1936 ft 267 kts 87°
2026-05-09 15:44 46.26842 -64.06758 1633 ft 264 kts 86°
2026-05-09 15:44 46.27002 -64.04178 1544 ft 249 kts 87°
2026-05-09 15:45 46.27180 -64.01772 1535 ft 232 kts 80°
2026-05-09 15:45 46.27849 -63.99794 1516 ft 210 kts 44°
2026-05-09 15:45 46.28949 -63.98591 1535 ft 187 kts 31°
2026-05-09 15:45 46.29957 -63.97667 1579 ft 161 kts 31°
2026-05-09 15:46 46.30830 -63.96838 1562 ft 146 kts 33°
2026-05-09 15:46 46.31653 -63.96010 1581 ft 141 kts 33°
2026-05-09 15:46 46.32459 -63.95194 1575 ft 141 kts 33°
2026-05-09 15:46 46.33263 -63.94375 1576 ft 141 kts 33°
2026-05-09 15:47 46.34065 -63.93558 1577 ft 141 kts 33°
2026-05-09 15:47 46.34871 -63.92736 1560 ft 141 kts 33°
2026-05-09 15:47 46.35662 -63.91925 1530 ft 141 kts 33°
2026-05-09 15:47 46.36463 -63.91112 1491 ft 140 kts 33°
2026-05-09 15:48 46.37263 -63.90297 1451 ft 140 kts 33°
2026-05-09 15:48 46.38076 -63.89506 1412 ft 140 kts 31°
2026-05-09 15:48 46.38892 -63.88714 1073 ft 142 kts 33°
2026-05-09 15:48 46.39675 -63.87852 772 ft 140 kts 39°
2026-05-09 15:49 46.40447 -63.87018 644 ft 137 kts 33°
2026-05-09 15:49 46.41236 -63.86260 566 ft 135 kts 35°
2026-05-09 15:49 46.41996 -63.85461 421 ft 135 kts 36°
2026-05-09 15:49 46.42754 -63.84684 231 ft 135 kts 36°
2026-05-09 15:50 46.43526 -63.83884 57 ft 136 kts 35°
2026-05-09 15:50 46.44165 -63.83231 56 ft 83 kts 33°
2026-05-09 15:50 46.44468 -63.82917 52 ft 24 kts 34°
2026-05-09 15:50 46.44585 -63.82789 51 ft 21 kts 39°
2026-05-09 15:51 46.44713 -63.82657 52 ft 25 kts 34°
2026-05-09 15:51 46.44861 -63.82513 50 ft 22 kts 34°
2026-05-09 15:51 46.44903 -63.82393 51 ft 15 kts 114°
2026-05-09 15:51 46.44857 -63.82301 51 ft 9 kts 137°
2026-05-09 15:52 46.44705 -63.82412 53 ft 17 kts 216°
2026-05-09 15:52 46.44601 -63.82523 55 ft 20 kts 216°
2026-05-09 15:52 46.44483 -63.82651 54 ft 22 kts 217°
2026-05-09 15:53 46.44348 -63.82780 51 ft 24 kts 213°
2026-05-09 15:53 46.44209 -63.82937 53 ft 21 kts 226°
2026-05-09 15:53 46.44129 -63.83045 55 ft 17 kts 215°
2026-05-09 15:53 46.44073 -63.83100 49 ft 9 kts 214°
2026-05-09 15:54 46.44043 -63.83130 55 ft 2 kts 214°
2026-05-09 15:54 46.44035 -63.83137 53 ft 0 kts 215°
2026-05-09 15:54 46.44023 -63.83150 57 ft 4 kts 216°
2026-05-09 15:55 46.43990 -63.83184 59 ft 8 kts 216°
2026-05-09 15:55 46.43938 -63.83235 56 ft 11 kts 217°
2026-05-09 15:55 46.43867 -63.83313 56 ft 15 kts 217°
2026-05-09 15:55 46.43773 -63.83406 54 ft 17 kts 216°
2026-05-09 15:56 46.43675 -63.83525 56 ft 20 kts 215°
2026-05-09 15:56 46.43604 -63.83600 50 ft 12 kts 237°
2026-05-09 15:56 46.43654 -63.83694 55 ft 15 kts 346°
2026-05-09 15:56 46.43765 -63.83641 58 ft 19 kts 33°
2026-05-09 15:57 46.43884 -63.83520 58 ft 23 kts 35°
2026-05-09 15:57 46.44022 -63.83378 58 ft 25 kts 34°
2026-05-09 15:57 46.44156 -63.83243 58 ft 10 kts 36°
2026-05-09 15:57 46.44213 -63.83183 56 ft 11 kts 36°
2026-05-09 15:58 46.44277 -63.83116 55 ft 12 kts 35°
2026-05-09 15:58 46.44285 -63.83107 53 ft 1 kts 38°
2026-05-09 15:58 46.44283 -63.83087 55 ft 4 kts 117°
2026-05-09 15:58 46.44255 -63.83058 56 ft 6 kts 149°
2026-05-09 15:59 46.44207 -63.83027 53 ft 9 kts 168°
2026-05-09 15:59 46.44195 -63.82954 53 ft 11 kts 52°
2026-05-09 15:59 46.44256 -63.82870 53 ft 13 kts 36°
2026-05-09 15:59 46.44336 -63.82789 52 ft 15 kts 33°
2026-05-09 16:00 46.44430 -63.82693 53 ft 18 kts 31°
2026-05-09 16:00 46.44465 -63.82661 54 ft 19 kts 33°
2026-05-09 16:00 46.44658 -63.82459 53 ft 22 kts 37°
2026-05-09 16:00 46.44775 -63.82339 52 ft 17 kts 33°
2026-05-09 16:01 46.44835 -63.82287 50 ft 5 kts 78°
2026-05-09 16:01 46.44837 -63.82256 51 ft 4 kts 84°
2026-05-09 16:01 46.44842 -63.82208 50 ft 6 kts 71°
2026-05-09 16:01 46.44871 -63.82155 48 ft 8 kts 44°
2026-05-09 16:02 46.44919 -63.82101 46 ft 10 kts 36°
2026-05-09 16:02 46.45046 -63.81946 46 ft 14 kts 81°
2026-05-09 16:02 46.45031 -63.81795 47 ft 11 kts 96°
2026-05-09 16:03 46.45032 -63.81708 47 ft 6 kts 70°
2026-05-09 16:03 46.45024 -63.81670 47 ft 3 kts 130°
2026-05-09 16:03 46.45023 -63.81669 46 ft 0 kts 136°